CZ-4B R/B (29507 NORAD) Tracking and Keplerian Element Data

This shows tracking and keplerian element data for the satellite.

Feedback or suggestion? Click here.




ElementValue
Catalog29507
NameCZ-4B R/B
Epoch Orbit74149
Epoch Day143.61957092
Epoch Year2020
RAAN165.5512
Inclination97.7588
Eccentricity0.0047199
Argument of Perigee250.2786
Mean Anonmoly109.3343
Mean Motion15.00631981
Decay Rate6.64E-06
L11 29507U 06046C 20143.61957092 .00000664 00000-0 56316-4 0 9999
L22 29507 97.7588 165.5512 0047199 250.2786 109.3343 15.00631981741496

Live tracking and technical data element details for CZ-4B R/B (NORAD 29507). CZ-4B R/B can be tracked NOW for your location showing map with azimuth and elevation plus other details from your city location.

Track the satellite on the map from your city or location and see movement details for azimuth, elevation, latitude, longitude, range, height, and movement on the map or in text.







IsCatalogInMostPopularTable: catalog: 29507, numindb: 451
Update: records affected: 1



GetName: 29507 CZ-4B R/B

Hit Count: updated at: Mon, 25 May 2020 07:35:03 GMT